PROBA-2

Last updated on Sun Jun 21 2026 00:03:42 GMT+0000 (Coordinated Universal Time)

1 36037U 09059B 26171.40414822 .00000114 00000+0 37079-4 0 9999 2 36037 98.2451 354.7122 0011942 270.9830 88.9999 14.54863494881995
UTC large
Height (km)
Speed (km/s)
/
Latitude / Longitude
Inclination (degrees)
Orbital Period (minutes)
Azimuth
Elevation
Range (km)
Doppler Factor

Next 0 passes for location: London (51.5072 / 0.1276)

No passes found over London.
PROBA-2